Regional Weather Roundup
Issued by NWS Huntsville, AL

Home | Current Version | Previous Version | Text Only | Print | Product List | Glossary On
Versions: 1 2 3 4 5 6 7 8 9 10 11 12 13 14 15 16 17 18 19 20 21 22 23 24 25 26 27 28 29 30 31 32 33 34 35 36 37 38 39 40 41 42 43 44 45 46 47 48 49 50
000
ASUS44 KHUN 210710
RWRHUN

WEATHER ROUNDUP FOR THE TENNESSEE VALLEY
NATIONAL WEATHER SERVICE HUNTSVILLE AL
100 AM CST SAT JAN 21 2017

ALZ001>004-210800-
NORTHWEST ALABAMA

CITY           SKY/WX    TMP DP  RH WIND       PRES   REMARKS
COURTLAND HCN    N/A     57 N/A N/A S5          N/A
RUSSELLVILLE     N/A     57 N/A N/A MISG        N/A
SHOALS AIRPORT CLOUDY    57  52  83 SE3       29.78S
SHOALS TVA RES   N/A     54 N/A N/A MISG        N/A
$$

ALZ005>007-016-210800-
NORTH CENTRAL ALABAMA

CITY           SKY/WX    TMP DP  RH WIND       PRES   REMARKS
CULLMAN AG STN   N/A     54 N/A N/A CALM        N/A
DECATUR AP     MOCLDY    56  56 100 SE3       29.78F
HUNTSVILLE AP  PTCLDY    58  55  90 E6        29.78F
MERIDIANVILLE  MOCLDY    55  52  88 S5        29.79S
REDSTONE ARSN  PTCLDY    58  56  94 S3        29.77F
VINEMONT AP    FAIR      58  56  92 S8        29.82R
$$

ALZ008>010-210800-
NORTHEAST ALABAMA

CITY           SKY/WX    TMP DP  RH WIND       PRES   REMARKS
ALBERTVILLE    CLOUDY    59  59 100 SE5       29.82R
FORT PAYNE     CLOUDY    50  46  87 CALM      29.82S FOG
SCOTTSBORO AP  CLOUDY    50  50 100 CALM      29.83R
SCOTTSBORO HCN   N/A     50 N/A N/A MISG        N/A
VALLEY HEAD      N/A     50 N/A N/A MISG        N/A
$$

TNZ076-096-097-210800-
SOUTHEASTERN MIDDLE TENNESSEE

CITY           SKY/WX    TMP DP  RH WIND       PRES   REMARKS
TULLAHOMA      CLEAR     57  54  88 S5        29.80S
WINCHESTER     CLEAR     57  52  82 E3        29.81S
$$

...SURROUNDING SITES...

CITY           SKY/WX    TMP DP  RH WIND       PRES   REMARKS
ATLANTA        FOG       63  62  97 S5        29.86S VSB 1
ANNISTON       CLOUDY    56  55  97 CALM      29.83S
BIRMINGHAM     MOCLDY    64  61  90 S6        29.83R
CHATTANOOGA    MOCLDY    53  50  89 CALM      29.83F
CORINTH        FAIR      57  54  88 S7        29.74R
DALTON         PTCLDY    54  54 100 CALM      29.84F
GADSDEN        CLOUDY    51  50  96 CALM      29.84R
GOLDEN TRNGL   CLOUDY    59  52  77 S6        29.72S
HALEYVILLE     FAIR      57  55  93 S5        29.81R
JACKSON TN     CLOUDY    62  52  69 S7        29.72S
MEMPHIS        CLOUDY    61  54  77 S9        29.69F
NASHVILLE      CLOUDY    57  52  83 S7        29.76S
OXFORD MS      FAIR      59  50  72 S7        29.75S
ROME           PTCLDY    54  51  90 CALM      29.83S
SAVANNAH       CLEAR     59  54  82 S5        29.73S
TUPELO         MOCLDY    57  51  80 S5        29.75R
TUSCALOOSA     CLOUDY    56  55  97 CALM      29.78F
$$

...GULF COAST WEATHER...

CITY           SKY/WX    TMP DP  RH WIND       PRES   REMARKS
GULFPORT       CLOUDY    68  68 100 SE7       29.76F FOG
PASCAGOULA     CLOUDY    69  67  93 S8        29.78F
MOBILE         CLOUDY    68  66  93 SE8       29.79F FOG
GULF SHORES    CLOUDY    69  69 100 S7        29.81S
PENSACOLA      CLOUDY    69  67  93 S8        29.80F
DESTIN         MOCLDY    72  72 100 S7        29.83S
PANAMA CITY    CLOUDY    68  66  94 E10       29.86F
APPALACHICOLA  MOCLDY    70  70 100 S10       29.89S
$$




USA.gov is the U.S. government's official web portal to all federal, state and local government web resources and services.